Tucson Davis Monthan, AZ

7:37 PM MST on December 14, 2019 (GMT -0700)
Davis-Monthan Air Force Base

Weather History for KDMA - October, 2019

Change the Weather History Date:

Wednesday, October 2, 2019

  Actual Average Record
Temperature  
Mean Temperature 73 °F -  
Max Temperature 86 °F 90 °F 101 °F (1980)
Min Temperature 60 °F 62 °F 49 °F (1982)
Cooling Degree Days 8    
Growing Degree Days 23 (Base 50)    
Moisture  
Dew Point 53 °F    
Average Humidity 51    
Maximum Humidity 80    
Minimum Humidity 28    
Precipitation  
Precipitation 0.00 in - - ()
Sea Level Pressure  
Sea Level Pressure 29.86 in    
Wind  
Wind Speed 4 mph (ESE)    
Max Wind Speed 9 mph    
Max Gust Speed -    
Visibility 10 miles    
Events      
Averages and records for this station are not official NWS values.
T = Trace of Precipitation, MM = Missing Value Source: NWS Daily Summary

Daily Weather History Graph

Daily Weather History Graph

Search for Another Location

Airport or City:

Astronomy

Oct. 02, 2019 Rise Set
Actual Time 6:18 AM MST 6:07 PM MST
Civil Twilight 5:53 AM MST 6:31 PM MST
Nautical Twilight 5:25 AM MST 6:59 PM MST
Astronomical Twilight 4:56 AM MST 7:28 PM MST
Moon 10:33 AM MST (10/2) 9:18 PM MST (10/2)
Length of Visible Light 12h 38m
Length of Day
11h 49m
Waxing Crescent, 21% of the Moon is Illuminated
Oct 2
Waxing Crescent
Oct 5
First Quarter
Oct 13
Full
Oct 21
Last Quarter
Oct 27
New

Hourly Weather History & Observations

Time (MST) Temp. Heat Index Dew Point Humidity Pressure Visibility Wind Dir Wind Speed Gust Speed Precip Events Conditions
12:58 AM 66.2 °F - 52.3 °F 61% 29.84 in 10.0 mi SSE 4.6 mph - N/A   Clear
1:58 AM 64.4 °F - 53.6 °F 68% 29.86 in 10.0 mi SSE 4.6 mph - N/A   Clear
2:58 AM 64.6 °F - 53.8 °F 68% 29.85 in 10.0 mi ESE 3.5 mph - N/A   Clear
3:58 AM 63.9 °F - 54.3 °F 71% 29.86 in 10.0 mi East 4.6 mph - N/A   Clear
4:58 AM 60.6 °F - 54.3 °F 80% 29.88 in 10.0 mi SSE 4.6 mph - N/A   Clear
5:58 AM 60.8 °F - 54.0 °F 78% 29.89 in 10.0 mi SE 4.6 mph - N/A   Clear
6:58 AM 61.9 °F - 54.5 °F 77% 29.91 in 10.0 mi ESE 5.8 mph - N/A   Clear
7:58 AM 68.5 °F - 56.3 °F 65% 29.92 in 10.0 mi Calm Calm - N/A   Clear
8:58 AM 71.8 °F - 55.8 °F 57% 29.93 in 10.0 mi Calm Calm - N/A   Clear
9:58 AM 75.2 °F - 54.7 °F 49% 29.93 in 10.0 mi Calm Calm - N/A   Clear
11:58 AM 80.8 °F 80.5 °F 54.1 °F 40% 29.89 in 10.0 mi Calm Calm - N/A   Clear
12:58 PM 83.7 °F 82.3 °F 53.1 °F 35% 29.86 in 10.0 mi Calm Calm - N/A   Clear
1:58 PM 84.7 °F - 49.8 °F 30% 29.84 in 10.0 mi North 5.8 mph - N/A   Clear
2:58 PM 85.8 °F - 49.8 °F 29% 29.82 in 10.0 mi WNW 5.8 mph - N/A   Clear
3:58 PM 86.5 °F - 50.5 °F 29% 29.81 in 10.0 mi WNW 5.8 mph - N/A   Clear
4:58 PM 86.2 °F - 49.3 °F 28% 29.81 in 10.0 mi North 5.8 mph - N/A   Clear
5:58 PM 83.1 °F - 48.4 °F 30% 29.82 in 10.0 mi NW 9.2 mph - N/A   Clear
6:58 PM 79.9 °F - 51.3 °F 37% 29.82 in 10.0 mi NNW 9.2 mph - N/A   Clear
7:58 PM 78.3 °F - 51.3 °F 39% 29.83 in 10.0 mi NW 9.2 mph - N/A   Clear
8:58 PM 76.5 °F - 49.6 °F 39% 29.84 in 10.0 mi NW 6.9 mph - N/A   Clear
9:58 PM 72.0 °F - 52.3 °F 50% 29.86 in 10.0 mi South 5.8 mph - N/A   Clear
10:58 PM 69.3 °F - 53.4 °F 57% 29.86 in 10.0 mi South 6.9 mph - N/A   Clear
11:58 PM 67.6 °F - 54.1 °F 62% 29.86 in 10.0 mi East 4.6 mph - N/A   Clear